OBJECT C, 63293

Orbit data source: Space-Track

You're viewing an Uncataloged Satellite

Recently launched and/or uncataloged satellites may have evolving metadata. Metadata may include but not limited to: Owner, Maufacturer, Bus, Motor, and Mission.

OBJECT C, 63293 is a satellite owned by Yunyao yuhang (CN) in SSO that was launched on Mon, 17 Mar 2025 UTC via a GUSHENXING 1 launch vehicle from the Jiuquan Satellite Launch Center, China (JSC). Unknown objects in Earth's orbit typically refer to objects detected orbiting the Earth but have not yet been identified or cataloged. These objects could be anything from previously untracked satellites, spent rocket stages, debris from satellite collisions, or even natural meteoroids temporarily captured by Earth's gravity.

Loading next visibility...
Identifier
63293, 2025-055C
Orbit
SSO
Last TLE update
9 hours ago
Origin
Flag of CNYYAO (CN / PRC)
Manufacturer
Changguang WJ
Mission
Operational Commercial Meteo Radio Occ.
Bus & Motor
YY-1, Unknown motor
Mass
~50 kg wet, ~50 kg dry
Launch date (UTC)
2025-03-17 (4 months ago)
Launch vehicle
GUSHENXING 1
Launch site
Jiuquan Satellite Launch Center, China (JSC)
Object type
Unknown
Shape & HBR
Box + 1 Pan, 5 m
Radar Cross Section
5.339 m², Medium (>0.1 m² and < 1m²)

Expand to show TLE details & history

TLE from 9 hours ago
0 OBJECT C
1 63293U 25055C   25184.19283346  .00006374  00000-0  37515-3 0  9990
2 63293  97.6132 318.9913 0011557 282.8551  77.1388 15.11933309 16250
Epoch: 2025-07-03T04:37Z
TLE epoch observation values (Epoch: 2025-07-03T04:37:40.81Z)
Latitude
-0.00003°
Longitude
-31.89184°
Altitude
531.609 km
Speed
7.598 km/s
True Right ascension
21h 15m 57s
True Declination
0° 00' 00"
Sunlit
Object was in full shadow at epoch
Visualization orbit readout
Latitude
22.7812°
Longitude
151.66702°
Altitude
537.723 km
Speed
7.593 km/s
Apparent Right ascension
11h 01m 22s
Apparent Declination
-7° 55' 46"
Sunlit
Object is in daylight
Visualization observer readout
Local Sidereal Time
01:02:35
Azimuth
48.45° ENE
Elevation
-48.107°
Doppler factor
1
Orbital elements
Apogee altitude
535.271 km
Perigee altitude
519.309 km
Semi-major axis
6,905.427 km
Eccentricity
0.00116
Inclination
97.6132°
RAAN
318.9913°
Arg. of periapsis
282.8551°
True anomaly
Unknown
Mean anomaly
77.1388°
Eccentric anomaly
Unknown
Mean motion
3.78231 °/min
Orbital period
95.18 mins
BSTAR
0.00037515
Loading maneuver chart data...
Loading SW <> Apogee altitude chart data...
Loading historical data...
Loading historical data...
Loading historical data...
Loading historical data...
Loading historical data...
Loading historical data...
Loading historical data...

OBJECT C Visibility forecast

Observer location: undefined°, undefined°

Span
Click to sort rows by Start time (UTC) header in descending order
Start Az.
Max El. time (UTC)
Max El. Az.
Max El.
End time (UTC)
End Az.
5 mins2025-07-03 21:05:47.447Z51.165° ENE2025-07-03 21:07:47.447Z88.299° E20.475°2025-07-03 21:10:47.447Z144.201° SSE
4 mins2025-07-03 22:40:47.447Z324.728° NNW2025-07-03 22:42:47.447Z278.747° WNW21.681°2025-07-03 22:44:47.447Z242.653° WSW
5 mins2025-07-04 09:21:47.447Z197.117° SSW2025-07-04 09:23:47.447Z272.906° WNW37.507°2025-07-04 09:26:47.447Z334.813° NNW
|